LA5PPA-1 Weather Reports


Display with metric or nautical units.
time (UTC)temp
F
wind
direction
speed
MPH
gust
MPH
rain 1hr
in
rain 24hr
in
rain mn
in
humidity
%
barometer
mb
20260509151147 41 298 2.0 8.0 0.00 0.00 0.00 73 1021.4
20260509150647 41 194 4.0 9.0 0.00 0.00 0.00 72 1021.5
20260509150147 41 334 1.0 9.0 0.00 0.00 0.00 71 1021.4
20260509145647 42 248 9.0 10.0 0.00 0.00 0.00 69 1021.4
20260509145147 42 30 3.0 8.0 0.00 0.00 0.00 67 1021.3
20260509145048 42 306 2.0 8.0 0.00 0.00 0.00 67 1021.4
20260509144647 42 261 1.0 8.0 0.00 0.00 0.00 66 1021.5
20260509144147 43 322 5.0 7.0 0.00 0.00 0.00 65 1021.4
20260509143948 43 322 0.0 5.0 0.00 0.00 0.00 65 1021.4
20260509143647 42 271 1.0 7.0 0.00 0.00 0.00 65 1021.5
20260509143147 42 298 2.0 12.0 0.00 0.00 0.00 65 1021.4
20260509142848 42 9 2.0 12.0 0.00 0.00 0.00 64 1021.5
20260509142647 42 281 8.0 11.0 0.00 0.00 0.00 64 1021.5
20260509142147 42 234 5.0 17.0 0.00 0.00 0.00 63 1021.7
20260509141748 43 279 6.0 9.0 0.00 0.00 0.00 62 1021.7
20260509141647 43 289 4.0 8.0 0.00 0.00 0.00 63 1021.7
20260509141147 43 296 3.0 6.0 0.00 0.00 0.00 62 1021.8
20260509140647 43 5 0.0 4.0 0.00 0.00 0.00 63 1021.9
20260509140147 43 317 0.0 5.0 0.00 0.00 0.00 64 1021.9
20260509135647 43 285 0.0 3.0 0.00 0.00 0.00 65 1022.0
20260509135548 43 316 1.0 4.0 0.00 0.00 0.00 65 1022.0
20260509135147 43 43 0.0 5.0 0.00 0.00 0.00 65 1022.0
20260509134647 43 277 4.0 7.0 0.00 0.00 0.00 64 1022.1
20260509134448 43 234 2.0 7.0 0.00 0.00 0.00 64 1022.2
20260509134147 43 265 4.0 9.0 0.00 0.00 0.00 62 1022.2
20260509133647 44 277 2.0 10.0 0.00 0.00 0.00 60 1022.2
20260509133348 44 278 5.0 10.0 0.00 0.00 0.00 59 1022.2
20260509133147 44 268 1.0 9.0 0.00 0.00 0.00 59 1022.2
20260509132647 44 289 1.0 7.0 0.00 0.00 0.00 58 1022.3
20260509132248 44 144 0.0 7.0 0.00 0.00 0.00 58 1022.3
20260509132147 45 271 3.0 6.0 0.00 0.00 0.00 57 1022.3
20260509131647 45 299 1.0 7.0 0.00 0.00 0.00 57 1022.4
20260509131147 45 279 2.0 7.0 0.00 0.00 0.00 57 1022.4
20260509130647 46 35 1.0 7.0 0.00 0.00 0.00 56 1022.6
20260509130147 46 205 5.0 11.0 0.00 0.00 0.00 56 1022.4
20260509130048 46 4 1.0 11.0 0.00 0.00 0.00 56 1022.6
20260509125647 46 336 3.0 9.0 0.00 0.00 0.00 56 1022.7
20260509125147 45 348 1.0 5.0 0.00 0.00 0.00 56 1022.7
20260509124948 45 35 1.0 7.0 0.00 0.00 0.00 56 1022.7
20260509124647 45 292 1.0 7.0 0.00 0.00 0.00 55 1022.8
20260509124147 45 358 5.0 9.0 0.00 0.00 0.00 55 1022.8
20260509123848 45 46 3.0 9.0 0.00 0.00 0.00 57 1022.8
20260509123647 45 21 0.0 9.0 0.00 0.00 0.00 58 1022.9
20260509123147 45 157 3.0 6.0 0.00 0.00 0.00 59 1022.9
20260509122748 44 156 6.0 6.0 0.00 0.00 0.00 60 1022.9
20260509122647 44 288 0.0 5.0 0.00 0.00 0.00 60 1022.9
20260509122147 44 313 0.0 3.0 0.00 0.00 0.00 62 1023.0
20260509121647 43 307 1.0 5.0 0.00 0.00 0.00 64 1023.1
20260509121147 43 261 0.0 7.0 0.00 0.00 0.00 64 1023.1
20260509120647 43 215 1.0 10.0 0.00 0.00 0.00 63 1023.1
20260509120548 43 53 3.0 14.0 0.00 0.00 0.00 63 1023.2
20260509120147 43 39 4.0 14.0 0.00 0.00 0.00 60 1023.2
20260509115647 44 12 0.0 7.0 0.00 0.00 0.00 59 1023.2
20260509115448 44 43 3.0 8.0 0.00 0.00 0.00 58 1023.2
20260509115147 44 275 2.0 8.0 0.00 0.00 0.00 57 1023.1
20260509114647 44 307 3.0 7.0 0.00 0.00 0.00 57 1023.1
20260509114348 44 309 2.0 12.0 0.00 0.00 0.00 57 1023.1
20260509114147 44 129 1.0 12.0 0.00 0.00 0.00 56 1023.1
20260509113647 44 270 1.0 12.0 0.00 0.00 0.00 56 1023.1
20260509113248 44 296 5.0 12.0 0.00 0.00 0.00 55 1023.1
20260509113147 44 281 6.0 7.0 0.00 0.00 0.00 57 1023.1
20260509112647 44 302 3.0 11.0 0.00 0.00 0.00 57 1023.1
20260509112147 44 322 5.0 11.0 0.00 0.00 0.00 57 1023.2
20260509111647 44 268 9.0 14.0 0.00 0.00 0.00 56 1023.2
20260509111147 44 260 5.0 10.0 0.00 0.00 0.00 56 1023.2
20260509111048 44 317 6.0 9.0 0.00 0.00 0.00 55 1023.2
20260509110647 44 150 2.0 9.0 0.00 0.00 0.00 58 1023.3
20260509110147 43 268 3.0 10.0 0.00 0.00 0.00 60 1023.3
20260509105948 43 289 7.0 11.0 0.00 0.00 0.00 59 1023.3
20260509105647 44 292 4.0 13.0 0.00 0.00 0.00 58 1023.3
20260509105147 44 309 3.0 10.0 0.00 0.00 0.00 58 1023.3
20260509104848 44 262 4.0 10.0 0.00 0.00 0.00 57 1023.5
20260509104647 44 299 3.0 10.0 0.00 0.00 0.00 58 1023.5
20260509104147 44 26 5.0 8.0 0.00 0.00 0.00 58 1023.5
20260509103748 44 260 4.0 11.0 0.00 0.00 0.00 58 1023.5
20260509103647 44 295 6.0 11.0 0.00 0.00 0.00 58 1023.5
20260509103147 44 292 3.0 7.0 0.00 0.00 0.00 59 1023.5
20260509102647 43 215 1.0 9.0 0.00 0.00 0.00 60 1023.5
20260509102147 43 298 6.0 8.0 0.00 0.00 0.00 60 1023.3
20260509101647 43 296 2.0 9.0 0.00 0.00 0.00 60 1023.5
20260509101548 43 295 7.0 7.0 0.00 0.00 0.00 60 1023.5
20260509101147 43 278 4.0 9.0 0.00 0.00 0.00 60 1023.5
20260509100647 43 268 5.0 8.0 0.00 0.00 0.00 60 1023.3
20260509100448 43 300 4.0 10.0 0.00 0.00 0.00 60 1023.5
20260509100147 43 270 5.0 10.0 0.00 0.00 0.00 59 1023.3
20260509095647 43 229 3.0 7.0 0.00 0.00 0.00 60 1023.5
20260509095348 43 244 3.0 9.0 0.00 0.00 0.00 59 1023.6
20260509095147 43 295 3.0 10.0 0.00 0.00 0.00 59 1023.5
20260509094647 44 270 8.0 8.0 0.00 0.00 0.00 58 1023.5
20260509094248 44 310 4.0 11.0 0.00 0.00 0.00 58 1023.6
20260509094147 44 271 3.0 11.0 0.00 0.00 0.00 57 1023.5
20260509093647 44 323 1.0 13.0 0.00 0.00 0.00 57 1023.6
20260509093147 44 220 2.0 10.0 0.00 0.00 0.00 57 1023.6
20260509092647 44 265 5.0 9.0 0.00 0.00 0.00 57 1023.5
20260509092147 43 320 2.0 11.0 0.00 0.00 0.00 58 1023.5
20260509092048 43 198 1.0 11.0 0.00 0.00 0.00 58 1023.6
20260509091647 43 236 1.0 7.0 0.00 0.00 0.00 58 1023.7
20260509091147 43 282 3.0 8.0 0.00 0.00 0.00 58 1023.7
20260509090948 43 275 7.0 7.0 0.00 0.00 0.00 57 1023.7
20260509090647 43 324 0.0 6.0 0.00 0.00 0.00 57 1023.7
20260509090147 43 199 4.0 9.0 0.00 0.00 0.00 58 1023.8
20260509085848 43 239 0.0 9.0 0.00 0.00 0.00 58 1023.7
20260509085647 43 241 7.0 8.0 0.00 0.00 0.00 58 1023.7
20260509085147 43 347 1.0 7.0 0.00 0.00 0.00 58 1023.7
20260509084748 43 284 3.0 8.0 0.00 0.00 0.00 58 1023.8
20260509084647 43 312 3.0 8.0 0.00 0.00 0.00 58 1023.8
20260509084147 43 171 3.0 12.0 0.00 0.00 0.00 58 1023.8
20260509083647 43 293 3.0 7.0 0.00 0.00 0.00 58 1023.8
20260509083147 43 63 0.0 8.0 0.00 0.00 0.00 58 1023.8
20260509082647 43 299 6.0 6.0 0.00 0.00 0.00 58 1023.9
20260509082548 43 181 1.0 6.0 0.00 0.00 0.00 58 1023.8
20260509082147 43 292 2.0 4.0 0.00 0.00 0.00 58 1023.9
20260509081647 43 37 0.0 5.0 0.00 0.00 0.00 58 1023.8
20260509081448 43 42 1.0 5.0 0.00 0.00 0.00 58 1023.8
20260509081147 43 331 0.0 6.0 0.00 0.00 0.00 59 1023.8
20260509080647 43 279 6.0 6.0 0.00 0.00 0.00 58 1023.9
20260509080348 43 267 0.0 5.0 0.00 0.00 0.00 57 1023.8
20260509080147 43 291 2.0 5.0 0.00 0.00 0.00 58 1023.8
20260509075647 43 258 1.0 8.0 0.00 0.00 0.00 57 1023.8
20260509075248 44 286 0.0 7.0 0.00 0.00 0.00 57 1023.8
20260509075147 44 302 2.0 7.0 0.00 0.00 0.00 57 1023.9
20260509074647 44 322 2.0 6.0 0.00 0.00 0.00 57 1023.8
20260509074147 44 268 1.0 8.0 0.00 0.00 0.00 57 1023.8
20260509073647 44 291 1.0 6.0 0.00 0.00 0.00 57 1023.8
20260509073147 44 298 0.0 4.0 0.00 0.00 0.00 58 1023.7
20260509073048 44 16 0.0 4.0 0.00 0.00 0.00 58 1023.8
20260509072647 44 189 1.0 3.0 0.00 0.00 0.00 59 1023.8
20260509072147 43 194 0.0 7.0 0.00 0.00 0.00 58 1023.9
20260509071948 43 1 1.0 7.0 0.00 0.00 0.00 59 1023.9
20260509071647 43 330 3.0 8.0 0.00 0.00 0.00 58 1023.8
20260509071147 43 222 1.0 5.0 0.00 0.00 0.00 60 1023.9
20260509070848 43 225 0.0 6.0 0.00 0.00 0.00 60 1023.9
20260509070647 43 358 1.0 6.0 0.00 0.00 0.00 59 1023.9
20260509070147 43 73 0.0 4.0 0.00 0.00 0.00 60 1023.9
20260509065748 43 267 4.0 4.0 0.00 0.00 0.00 60 1023.9
20260509065647 43 310 0.0 4.0 0.00 0.00 0.00 60 1023.9
20260509065147 42 43 2.0 5.0 0.00 0.00 0.00 61 1023.8
20260509064647 42 323 0.0 7.0 0.00 0.00 0.00 61 1023.8
20260509064147 42 277 1.0 5.0 0.00 0.00 0.00 62 1023.8
20260509063647 42 0 2.0 6.0 0.00 0.00 0.00 63 1023.7
20260509063548 41 26 0.0 3.0 0.00 0.00 0.00 63 1023.8
20260509063147 41 358 1.0 5.0 0.00 0.00 0.00 63 1023.8
20260509062647 41 315 1.0 8.0 0.00 0.00 0.00 63 1023.9
20260509062448 41 351 0.0 8.0 0.00 0.00 0.00 63 1023.9
20260509062147 41 275 7.0 7.0 0.00 0.00 0.00 63 1023.9
20260509061647 41 195 2.0 5.0 0.00 0.00 0.00 64 1023.8
20260509061349 40 300 1.0 5.0 0.00 0.00 0.00 64 1023.8
20260509061147 40 260 0.0 6.0 0.00 0.00 0.00 64 1023.8
20260509060647 40 150 3.0 6.0 0.00 0.00 0.00 64 1023.9
20260509060249 40 338 0.0 8.0 0.00 0.00 0.00 64 1023.9
20260509060147 40 330 1.0 8.0 0.00 0.00 0.00 64 1023.9
20260509055647 40 291 0.0 6.0 0.00 0.00 0.00 64 1024.0
20260509055147 40 271 1.0 7.0 0.00 0.00 0.00 65 1024.0
20260509054648 40 278 0.0 8.0 0.00 0.00 0.00 64 1024.0
20260509054148 40 247 2.0 5.0 0.00 0.00 0.00 65 1023.9
20260509054049 40 320 1.0 5.0 0.00 0.00 0.00 65 1024.0
20260509053648 39 102 0.0 4.0 0.00 0.00 0.00 65 1024.0
20260509053148 39 331 3.0 5.0 0.00 0.00 0.00 65 1024.1
20260509052949 39 344 0.0 5.0 0.00 0.00 0.00 65 1024.1
20260509052648 39 309 1.0 5.0 0.00 0.00 0.00 65 1024.1
20260509052148 39 329 0.0 8.0 0.00 0.00 0.00 65 1024.2
20260509051849 39 168 6.0 6.0 0.00 0.00 0.00 65 1024.2
20260509051648 39 257 3.0 4.0 0.00 0.00 0.00 66 1024.2
20260509051148 39 338 0.0 4.0 0.00 0.00 0.00 66 1024.2
20260509050749 38 302 1.0 4.0 0.00 0.00 0.00 66 1024.2
20260509050648 38 129 0.0 8.0 0.00 0.00 0.00 66 1024.3
20260509050148 38 119 3.0 10.0 0.00 0.00 0.00 67 1024.3
20260509045648 38 286 0.0 4.0 0.00 0.00 0.00 67 1024.3
20260509045148 38 267 1.0 6.0 0.00 0.00 0.00 67 1024.5
20260509044648 38 275 1.0 6.0 0.00 0.00 0.00 67 1024.2
20260509044549 38 262 1.0 6.0 0.00 0.00 0.00 67 1024.3
20260509044148 38 358 6.0 6.0 0.00 0.00 0.00 67 1024.3
20260509043648 38 286 1.0 5.0 0.00 0.00 0.00 67 1024.3
20260509043449 38 261 0.0 5.0 0.00 0.00 0.00 67 1024.3
20260509043148 38 281 0.0 3.0 0.00 0.00 0.00 67 1024.5
20260509042648 38 323 1.0 4.0 0.00 0.00 0.00 67 1024.5
20260509042349 38 317 1.0 5.0 0.00 0.00 0.00 67 1024.5
20260509042148 38 261 0.0 5.0 0.00 0.00 0.00 67 1024.3
20260509041648 38 139 1.0 2.0 0.00 0.00 0.00 66 1024.3
20260509041249 38 296 2.0 6.0 0.00 0.00 0.00 66 1024.3
20260509041148 37 330 0.0 6.0 0.00 0.00 0.00 66 1024.3
20260509040648 37 43 0.0 3.0 0.00 0.00 0.00 66 1024.5
20260509040148 37 233 0.0 5.0 0.00 0.00 0.00 66 1024.5
20260509035648 37 310 1.0 3.0 0.00 0.00 0.00 65 1024.5
20260509035148 37 70 0.0 5.0 0.00 0.00 0.00 66 1024.3
20260509035049 37 168 2.0 5.0 0.00 0.00 0.00 66 1024.5
20260509034648 37 243 2.0 4.0 0.00 0.00 0.00 66 1024.5
20260509034148 37 271 1.0 3.0 0.00 0.00 0.00 66 1024.6
20260509033949 37 323 0.0 7.0 0.00 0.00 0.00 66 1024.6
20260509033648 37 277 1.0 7.0 0.00 0.00 0.00 67 1024.6
20260509033148 37 53 0.0 2.0 0.00 0.00 0.00 67 1024.6
20260509032849 37 289 0.0 0.0 0.00 0.00 0.00 67 1024.7
20260509032648 37 180 0.0 1.0 0.00 0.00 0.00 67 1024.7
20260509032148 37 180 0.0 4.0 0.00 0.00 0.00 66 1024.7
20260509031749 37 244 0.0 3.0 0.00 0.00 0.00 66 1024.7
20260509031648 37 244 0.0 3.0 0.00 0.00 0.00 66 1024.8
20260509031148 37 295 2.0 3.0 0.00 0.00 0.00 66 1024.8
20260509030648 37 137 2.0 3.0 0.00 0.00 0.00 65 1024.8
20260509030148 37 216 0.0 4.0 0.00 0.00 0.00 65 1024.8
20260509025648 37 329 0.0 3.0 0.00 0.00 0.00 65 1024.8
20260509025549 37 329 0.0 3.0 0.00 0.00 0.00 65 1024.8
20260509025148 37 358 1.0 1.0 0.00 0.00 0.00 65 1024.8
20260509024648 37 25 0.0 3.0 0.00 0.00 0.00 65 1024.8
20260509024449 37 358 1.0 3.0 0.00 0.00 0.00 65 1024.9
20260509024148 37 102 0.0 3.0 0.00 0.00 0.00 65 1024.9
20260509023648 37 312 1.0 1.0 0.00 0.00 0.00 65 1025.0
20260509023349 37 350 0.0 9.0 0.00 0.00 0.00 65 1025.0
20260509023148 37 350 0.0 9.0 0.00 0.00 0.00 65 1025.0
20260509022648 37 23 0.0 5.0 0.00 0.00 0.00 65 1025.0
20260509022249 37 177 0.0 4.0 0.00 0.00 0.00 64 1025.1
20260509022148 37 177 0.0 4.0 0.00 0.00 0.00 64 1025.1
20260509021648 37 289 1.0 2.0 0.00 0.00 0.00 65 1025.1
20260509021148 37 184 0.0 2.0 0.00 0.00 0.00 64 1025.1
20260509020648 37 274 0.0 1.0 0.00 0.00 0.00 64 1025.1
20260509020148 38 43 0.0 2.0 0.00 0.00 0.00 64 1025.1
20260509020049 38 94 0.0 2.0 0.00 0.00 0.00 64 1025.1
20260509015648 38 94 0.0 2.0 0.00 0.00 0.00 63 1025.1
20260509015148 38 285 0.0 0.0 0.00 0.00 0.00 63 1025.1
20260509014949 38 285 0.0 1.0 0.00 0.00 0.00 63 1025.1
20260509014648 38 285 0.0 2.0 0.00 0.00 0.00 62 1025.1
20260509014148 38 142 0.0 3.0 0.00 0.00 0.00 62 1025.1
20260509013849 38 315 0.0 0.0 0.00 0.00 0.00 62 1025.0
20260509013648 38 315 0.0 0.0 0.00 0.00 0.00 62 1025.1
20260509013148 38 315 0.0 0.0 0.00 0.00 0.00 61 1025.1
20260509012749 38 315 0.0 0.0 0.00 0.00 0.00 61 1025.1
20260509012648 38 315 0.0 2.0 0.00 0.00 0.00 61 1025.1
20260509012148 38 194 2.0 3.0 0.00 0.00 0.00 61 1025.1
20260509011648 39 94 0.0 3.0 0.00 0.00 0.00 60 1025.1
20260509011148 39 281 0.0 2.0 0.00 0.00 0.00 60 1025.1
20260509010648 39 106 1.0 9.0 0.00 0.00 0.00 60 1024.9
20260509010549 39 298 1.0 3.0 0.00 0.00 0.00 61 1025.0
20260509010148 39 289 0.0 5.0 0.00 0.00 0.00 60 1025.1
20260509005648 39 129 0.0 2.0 0.00 0.00 0.00 60 1025.0
20260509005449 39 210 0.0 2.0 0.00 0.00 0.00 60 1025.0
20260509005148 39 336 0.0 5.0 0.00 0.00 0.00 60 1025.1
20260509004648 39 147 0.0 4.0 0.00 0.00 0.00 60 1025.1
20260509004349 39 300 0.0 3.0 0.00 0.00 0.00 60 1025.1
20260509004148 39 226 1.0 4.0 0.00 0.00 0.00 60 1025.1
20260509003648 39 257 4.0 4.0 0.00 0.00 0.00 60 1025.1
20260509003249 39 220 1.0 2.0 0.00 0.00 0.00 61 1025.0
20260509003148 39 151 0.0 3.0 0.00 0.00 0.00 61 1025.1
20260509002648 39 295 1.0 4.0 0.00 0.00 0.00 61 1025.0
20260509002148 39 66 0.0 2.0 0.00 0.00 0.00 61 1025.0
20260509001648 39 316 0.0 5.0 0.00 0.00 0.00 61 1025.1
20260509001148 39 317 0.0 4.0 0.00 0.00 0.00 61 1025.1
20260509001049 39 317 0.0 4.0 0.00 0.00 0.00 62 1025.1
20260509000648 39 351 0.0 3.0 0.00 0.00 0.00 62 1025.1
20260509000148 39 298 0.0 6.0 0.00 0.00 0.00 61 1025.2
20260508235949 39 310 0.0 6.0 0.00 0.00 0.00 62 1025.2
20260508235648 39 127 1.0 4.0 0.00 0.00 0.00 62 1025.2
20260508235148 39 46 0.0 3.0 0.00 0.00 0.00 62 1025.2
20260508234849 39 188 1.0 3.0 0.00 0.00 0.00 62 1025.2
20260508234648 39 324 0.0 3.0 0.00 0.00 0.00 62 1025.2
20260508234148 39 241 0.0 7.0 0.00 0.00 0.00 63 1025.2
20260508233749 39 330 0.0 2.0 0.00 0.00 0.00 64 1025.2
20260508233648 39 330 0.0 2.0 0.00 0.00 0.00 63 1025.2
20260508233148 39 352 1.0 2.0 0.00 0.00 0.00 64 1025.2
20260508232648 39 323 2.0 3.0 0.00 0.00 0.00 64 1025.2
20260508232148 39 358 1.0 2.0 0.00 0.00 0.00 64 1025.2
20260508231648 39 234 0.0 1.0 0.00 0.00 0.00 64 1025.1
20260508231549 39 234 0.0 1.0 0.00 0.00 0.00 64 1025.2
20260508231148 39 22 0.0 1.0 0.00 0.00 0.00 64 1025.4
20260508230648 39 326 0.0 1.0 0.00 0.00 0.00 64 1025.4
20260508230449 39 326 0.0 1.0 0.00 0.00 0.00 64 1025.4
20260508230148 39 340 0.0 1.0 0.00 0.00 0.00 63 1025.4
20260508225648 39 11 0.0 2.0 0.00 0.00 0.00 63 1025.4
20260508225349 39 11 0.0 3.0 0.00 0.00 0.00 63 1025.4
20260508225148 40 347 1.0 3.0 0.00 0.00 0.00 63 1025.4
20260508224648 40 322 0.0 5.0 0.00 0.00 0.00 62 1025.4
20260508224249 40 250 2.0 5.0 0.00 0.00 0.00 62 1025.5
20260508224148 40 60 0.0 2.0 0.00 0.00 0.00 62 1025.5
20260508223648 40 188 0.0 1.0 0.00 0.00 0.00 61 1025.4
20260508223148 40 122 1.0 3.0 0.00 0.00 0.00 61 1025.4
20260508222648 40 4 0.0 2.0 0.00 0.00 0.00 61 1025.2
20260508222148 40 340 0.0 1.0 0.00 0.00 0.00 61 1025.1
20260508222049 40 340 0.0 1.0 0.00 0.00 0.00 61 1025.2
20260508221648 40 320 0.0 3.0 0.00 0.00 0.00 60 1025.2
20260508221148 40 222 1.0 2.0 0.00 0.00 0.00 60 1025.2
20260508220949 40 331 0.0 2.0 0.00 0.00 0.00 60 1025.2
20260508220829 40 315 0.0 2.0 0.00 0.00 0.00 60 1025.2
20260508220148 40 286 0.0 1.0 0.00 0.00 0.00 60 1025.2
20260508215849 40 18 0.0 1.0 0.00 0.00 0.00 60 1025.2
20260508215648 40 296 0.0 1.0 0.00 0.00 0.00 60 1025.2
20260508215148 40 303 0.0 2.0 0.00 0.00 0.00 60 1025.2
20260508214749 40 307 0.0 1.0 0.00 0.00 0.00 60 1025.4
20260508214648 40 344 0.0 1.0 0.00 0.00 0.00 60 1025.2
20260508214148 40 306 0.0 1.0 0.00 0.00 0.00 59 1025.2
20260508213648 40 312 0.0 2.0 0.00 0.00 0.00 59 1025.2
20260508213148 40 191 0.0 1.0 0.00 0.00 0.00 59 1025.2
20260508212648 40 241 0.0 0.0 0.00 0.00 0.00 59 1025.1
20260508212549 40 241 0.0 0.0 0.00 0.00 0.00 59 1025.2
20260508212148 40 241 0.0 0.0 0.00 0.00 0.00 58 1025.2
20260508211648 41 241 0.0 1.0 0.00 0.00 0.00 58 1025.2
20260508211449 41 312 0.0 0.0 0.00 0.00 0.00 58 1025.2
20260508211148 41 312 0.0 0.0 0.00 0.00 0.00 58 1025.2
20260508210648 41 312 0.0 1.0 0.00 0.00 0.00 57 1025.1
20260508210351 41 312 0.0 1.0 0.00 0.00 0.00 57 1025.1
20260508210148 41 312 0.0 1.0 0.00 0.00 0.00 57 1025.1
20260508205648 41 142 0.0 2.0 0.00 0.00 0.00 57 1025.1
20260508205249 41 167 0.0 3.0 0.00 0.00 0.00 57 1025.1
20260508205148 41 167 0.0 3.0 0.00 0.00 0.00 57 1025.1
20260508204648 41 281 0.0 1.0 0.00 0.00 0.00 56 1025.1
20260508204148 41 270 0.0 0.0 0.00 0.00 0.00 56 1025.1
20260508203648 41 270 0.0 0.0 0.00 0.00 0.00 55 1025.0
20260508203148 41 270 0.0 0.0 0.00 0.00 0.00 55 1024.9
20260508203049 41 270 0.0 0.0 0.00 0.00 0.00 55 1025.0
20260508202648 42 270 0.0 2.0 0.00 0.00 0.00 54 1025.1
20260508202148 41 293 0.0 5.0 0.00 0.00 0.00 54 1025.0
20260508201949 41 151 0.0 4.0 0.00 0.00 0.00 54 1025.0
20260508201648 41 260 1.0 5.0 0.00 0.00 0.00 54 1025.0
20260508201149 42 279 0.0 4.0 0.00 0.00 0.00 54 1024.9
20260508200849 42 295 1.0 4.0 0.00 0.00 0.00 54 1024.9
20260508200648 42 296 3.0 4.0 0.00 0.00 0.00 53 1024.9
20260508200148 42 299 2.0 6.0 0.00 0.00 0.00 53 1024.8
20260508195749 42 282 3.0 5.0 0.00 0.00 0.00 53 1024.8
20260508195648 42 279 4.0 5.0 0.00 0.00 0.00 53 1024.8
20260508195148 42 250 4.0 6.0 0.00 0.00 0.00 52 1024.8
20260508194648 42 299 2.0 5.0 0.00 0.00 0.00 52 1024.8
20260508194148 42 244 3.0 6.0 0.00 0.00 0.00 52 1024.7
20260508193648 43 262 0.0 6.0 0.00 0.00 0.00 51 1024.6
20260508193549 43 262 2.0 6.0 0.00 0.00 0.00 51 1024.7
20260508193148 43 281 3.0 5.0 0.00 0.00 0.00 51 1024.7
20260508192648 43 281 2.0 5.0 0.00 0.00 0.00 51 1024.6
20260508192449 43 310 1.0 5.0 0.00 0.00 0.00 51 1024.6
20260508192148 43 260 1.0 7.0 0.00 0.00 0.00 50 1024.7
20260508191648 44 303 2.0 4.0 0.00 0.00 0.00 50 1024.6
20260508191351 44 237 0.0 7.0 0.00 0.00 0.00 50 1024.6
20260508191148 44 260 3.0 7.0 0.00 0.00 0.00 49 1024.6
20260508190648 44 213 1.0 5.0 0.00 0.00 0.00 49 1024.6
20260508190249 45 281 0.0 5.0 0.00 0.00 0.00 48 1024.5
20260508190148 45 234 4.0 5.0 0.00 0.00 0.00 48 1024.6
20260508185648 45 230 0.0 7.0 0.00 0.00 0.00 48 1024.6
20260508185148 45 298 1.0 9.0 0.00 0.00 0.00 48 1024.5
20260508184648 45 191 1.0 8.0 0.00 0.00 0.00 48 1024.6
20260508184148 45 213 0.0 7.0 0.00 0.00 0.00 48 1024.5
20260508184049 45 292 2.0 7.0 0.00 0.00 0.00 48 1024.7
20260508183648 45 265 5.0 7.0 0.00 0.00 0.00 48 1024.6
20260508183148 45 275 5.0 8.0 0.00 0.00 0.00 48 1024.6
20260508182949 45 316 0.0 8.0 0.00 0.00 0.00 48 1024.6
20260508182648 45 310 7.0 7.0 0.00 0.00 0.00 48 1024.6
20260508182148 45 260 0.0 7.0 0.00 0.00 0.00 48 1024.6
20260508181850 45 281 5.0 7.0 0.00 0.00 0.00 48 1024.6
20260508181649 45 306 0.0 7.0 0.00 0.00 0.00 48 1024.6
20260508181148 45 320 1.0 7.0 0.00 0.00 0.00 48 1024.6
20260508180749 45 281 1.0 7.0 0.00 0.00 0.00 48 1024.6
20260508180648 45 293 3.0 3.0 0.00 0.00 0.00 48 1024.6
20260508180148 45 212 1.0 7.0 0.00 0.00 0.00 47 1024.6
20260508175648 45 52 2.0 6.0 0.00 0.00 0.00 47 1024.5
20260508175148 45 127 1.0 5.0 0.00 0.00 0.00 47 1024.5
20260508174648 45 270 1.0 7.0 0.00 0.00 0.00 47 1024.5
20260508174550 45 344 0.0 7.0 0.00 0.00 0.00 46 1024.6
20260508174148 46 282 0.0 8.0 0.00 0.00 0.00 47 1024.6
20260508173649 46 234 3.0 7.0 0.00 0.00 0.00 46 1024.5
20260508173450 46 222 2.0 7.0 0.00 0.00 0.00 46 1024.5
20260508173149 46 239 5.0 7.0 0.00 0.00 0.00 46 1024.5
20260508172649 46 319 7.0 9.0 0.00 0.00 0.00 46 1024.3
20260508172350 46 123 2.0 5.0 0.00 0.00 0.00 46 1024.3
20260508172149 46 220 2.0 4.0 0.00 0.00 0.00 45 1024.3
20260508171649 46 120 0.0 7.0 0.00 0.00 0.00 45 1024.3
20260508171250 46 312 1.0 7.0 0.00 0.00 0.00 46 1024.2
20260508171149 46 295 6.0 6.0 0.00 0.00 0.00 45 1024.2
20260508170649 46 167 0.0 8.0 0.00 0.00 0.00 44 1024.2
20260508170149 47 243 5.0 11.0 0.00 0.00 0.00 43 1024.2
20260508165649 47 265 1.0 7.0 0.00 0.00 0.00 43 1024.2
20260508165149 47 285 0.0 8.0 0.00 0.00 0.00 44 1024.2
20260508165050 47 253 5.0 8.0 0.00 0.00 0.00 44 1024.2
20260508164649 47 338 0.0 7.0 0.00 0.00 0.00 43 1024.1
20260508164149 47 292 0.0 8.0 0.00 0.00 0.00 43 1024.1
20260508163950 47 222 4.0 8.0 0.00 0.00 0.00 43 1024.1
20260508163649 47 272 2.0 12.0 0.00 0.00 0.00 43 1024.2
20260508163149 47 299 5.0 12.0 0.00 0.00 0.00 42 1024.1
20260508162850 47 261 5.0 12.0 0.00 0.00 0.00 42 1024.1
20260508162649 47 196 0.0 6.0 0.00 0.00 0.00 43 1024.0
20260508162149 48 278 3.0 9.0 0.00 0.00 0.00 42 1024.0
20260508161750 48 250 1.0 9.0 0.00 0.00 0.00 42 1024.0
20260508161649 48 19 3.0 9.0 0.00 0.00 0.00 41 1024.0
20260508161149 48 60 1.0 9.0 0.00 0.00 0.00 42 1024.1
20260508160649 48 113 6.0 6.0 0.00 0.00 0.00 41 1024.1
20260508160149 48 80 1.0 8.0 0.00 0.00 0.00 41 1024.1
20260508155649 48 288 1.0 9.0 0.00 0.00 0.00 41 1024.0
20260508155550 48 286 1.0 9.0 0.00 0.00 0.00 40 1024.1
20260508155149 48 61 2.0 9.0 0.00 0.00 0.00 40 1024.0
20260508154649 48 295 3.0 9.0 0.00 0.00 0.00 40 1024.0
20260508154450 49 182 3.0 9.0 0.00 0.00 0.00 40 1023.9
20260508154149 49 191 1.0 8.0 0.00 0.00 0.00 41 1024.0
20260508153649 49 208 3.0 9.0 0.00 0.00 0.00 41 1024.1
20260508153350 49 326 1.0 11.0 0.00 0.00 0.00 40 1024.1
20260508153149 49 267 7.0 12.0 0.00 0.00 0.00 39 1024.0
20260508152649 49 317 3.0 9.0 0.00 0.00 0.00 38 1024.1
20260508152250 50 104 2.0 9.0 0.00 0.00 0.00 38 1024.1
20260508152149 50 310 3.0 8.0 0.00 0.00 0.00 38 1024.1
20260508151649 50 115 0.0 10.0 0.00 0.00 0.00 38 1024.1